{"data":{"norad_id":51777,"epoch":"2026-05-24T23:18:01.859040Z","epoch_age_seconds":81548,"freshness":"FRESH","line1":"1 51777U 22017K   26144.97085485  .00001122  00000+0  88522-4 0  9996","line2":"2 51777  53.2134 356.6514 0001061  58.5257 301.5839 15.08846318234111","mean_motion":15.08846318,"eccentricity":0.0001061,"inclination_deg":53.2134,"raan_deg":356.6514,"arg_perigee_deg":58.5257,"mean_anomaly_deg":301.5839,"bstar":8.8522e-5,"rev_number":23411,"period_min":95.437155051599,"perigee_km":538.99009237273,"apogee_km":540.45806249336,"semimajor_km":6917.861077433,"source":"CELESTRAK","updated_at":"2026-05-25T13:38:16.951495Z"}}